Regional Weather Roundup
Issued by NWS

Home | Current Version | Previous Version | Graphics & Text | Print | Product List | Glossary On
Versions: 1 2 3 4 5 6 7 8 9 10 11 12 13 14 15 16 17 18 19 20 21 22 23 24 25 26 27 28 29 30 31 32 33 34 35 36 37 38 39 40 41 42 43 44 45 46 47 48 49 50
491
ASUS43 KLSX 291957
RWRMO

WEATHER SUMMARY FOR MISSOURI
NATIONAL WEATHER SERVICE SPRINGFIELD MO
300 PM CDT FRI JUL 29 2016

NOTE: "FAIR" INDICATES FEW OR NO CLOUDS BELOW 12,000 FEET WITH NO
       SIGNIFICANT WEATHER AND/OR OBSTRUCTIONS TO VISIBILITY.
       CURRENT SKY AND/OR WEATHER CONDITIONS ARE NOT AVAILABLE FOR
       CHILLICOTHE AND FARMINGTON.

MOZ001>031-035>038-043-044-053-054-292100-
...NORTHERN AND WESTERN MISSOURI...

CITY           SKY/WX    TMP DP  RH WIND       PRES   REMARKS
KANSAS CTY INT PTSUNNY   84  63  49 N8        30.00S
LEE`S SUMMIT   MOSUNNY   84  65  52 N8        29.99F
ST JOSEPH      MOSUNNY   81  63  54 N8        30.00F

$$
MOZ066>068-077>081-088>096-101>105-292100-
...SOUTHWEST MISSOURI...

CITY           SKY/WX    TMP DP  RH WIND       PRES   REMARKS
SPRINGFIELD    CLOUDY    86  68  54 W3        29.97F
JOPLIN         MOSUNNY   86  70  58 NW8       29.98F HX  90
BRANSON        CLOUDY    72  68  88 CALM      30.01S

$$
MOZ032>034-039>042-045>050-055>058-069>072-292100-
...CENTRAL MISSOURI...

CITY           SKY/WX    TMP DP  RH WIND       PRES   REMARKS
COLUMBIA       NOT AVBL
JEFFERSON CITY CLOUDY    83  69  62 VRB5      29.94S
ROLLA          CLOUDY    78  72  81 W8        29.96R
SEDALIA        MOSUNNY   84  71  65 N10       29.98S
OSAGE BEACH    CLOUDY    75  68  78 N5        29.97S

$$
MOZ051-052-059>065-292100-
...EAST CENTRAL MISSOURI...

CITY           SKY/WX    TMP DP  RH WIND       PRES   REMARKS
ST LOUIS INTL  PTSUNNY   85  68  56 NW9       29.94F

$$
MOZ072>076-082>087-097>100-106>115-292100-
...SOUTH CENTRAL AND SOUTHEAST MISSOURI...

CITY           SKY/WX    TMP DP  RH WIND       PRES   REMARKS
CAPE GIRARDEAU SUNNY     86  74  67 CALM      29.90F HX  94
POPLAR BLUFF   MOSUNNY   86  75  69 VRB3      29.90F HX  95
WEST PLAINS    TSTM      73  69  87 SW12G26   30.01R FOG

$$



USA.gov is the U.S. government's official web portal to all federal, state and local government web resources and services.